{"data":{"norad_id":62283,"epoch":"2026-09-21T03:59:38.554944Z","epoch_age_seconds":120024,"freshness":"FRESH","line1":"1 62283U 24237S   26264.16641846  .00012810  00000+0  47388-3 0  9999","line2":"2 62283  43.0048 181.5013 0001708 262.7217  97.3441 15.27605217101213","mean_motion":15.27605217,"eccentricity":0.0001708,"inclination_deg":43.0048,"raan_deg":181.5013,"arg_perigee_deg":262.7217,"mean_anomaly_deg":97.3441,"bstar":0.00047388,"rev_number":10121,"period_min":94.265192601787,"perigee_km":481.80171062012,"apogee_km":484.14546599709,"semimajor_km":6861.1105883086,"source":"CELESTRAK","updated_at":"2026-09-22T09:00:49.568977Z"}}